{"data":{"norad_id":62949,"intl_designator":"2025-029B","name":"STARLINK-32857","alt_names":[],"object_type":"PAYLOAD","status":"ACTIVE","operator":null,"country":"US","launch_date":"2025-02-11","launch_site_code":"AFWTR","launch_vehicle":null,"mission":null,"orbit_class":"UNKNOWN","rcs_meters":null,"size_class":null,"mass_kg":null,"dimensions":null,"purposes":["comms"],"wikipedia_slug":null,"has_3d_model":false,"image_url":null,"decayed_at":null,"tle_current":{"epoch":"2026-09-21T14:55:05.461536Z","epoch_age_seconds":68297,"freshness":"FRESH","line1":"1 62949U 25029B   26264.62159099  .00014189  00000+0  43030-3 0  9994","line2":"2 62949  53.1608  36.1418 0001217  72.6405 287.4731 15.34398822 91448","mean_motion":15.34398822,"eccentricity":0.0001217,"inclination_deg":53.1608,"raan_deg":36.1418,"arg_perigee_deg":72.6405,"mean_anomaly_deg":287.4731,"bstar":0.0004303,"rev_number":9144,"period_min":93.847830130829,"perigee_km":461.87421079026,"apogee_km":463.53927215694,"semimajor_km":6840.8437414736,"source":"CELESTRAK","updated_at":"2026-09-22T09:00:49.711155Z"}}}